GONETS-M 17 (46486 NORAD) Tracking and Keplerian Element Data

This shows tracking and keplerian element data for the satellite.

Feedback or suggestion? Click here.




ElementValue
Catalog46486
NameGONETS-M 17
Epoch Orbit381
Epoch Day303.15774388
Epoch Year2020
RAAN187.1024
Inclination82.501
Eccentricity0.0013049
Argument of Perigee193.9977
Mean Anonmoly166.0745
Mean Motion12.41044275
Decay Rate1E-07
L11 46486U 20068A 20303.15774388 .00000010 00000-0 00000+0 0 9995
L22 46486 82.5010 187.1024 0013049 193.9977 166.0745 12.41044275 3812

Live tracking and technical data element details for GONETS-M 17 (NORAD 46486). GONETS-M 17 can be tracked NOW for your location showing map with azimuth and elevation plus other details from your city location.

Track the satellite on the map from your city or location and see movement details for azimuth, elevation, latitude, longitude, range, height, and movement on the map or in text.







IsCatalogInMostPopularTable: catalog: 46486, numindb: 6
Update: records affected: 1



GetName: 46486 GONETS-M 17

Hit Count: updated at: Fri, 30 Oct 2020 01:27:51 GMT